This is the latest recevied weather packets stored in our database for station/object HB3YKO-13. If no packets are shown the sender has not sent any weather packets the latest 10 day(s).
| Time | Temp. | Humidity | Pressure | Rain* | Wind** | Luminosity | Snow |
|---|---|---|---|---|---|---|---|
| 1777885486 | -17.78° C | 71% | 0 hPa | 0 mm | - | - | - |
| 1777885186 | -17.78° C | 70% | 0 hPa | 0 mm | - | - | - |
| 1777884886 | -17.78° C | 72% | 0 hPa | 0 mm | - | - | - |
| 1777884586 | -17.78° C | 69% | 0 hPa | 0 mm | - | - | - |
| 1777884286 | -17.78° C | 70% | 0 hPa | 0 mm | - | - | - |
| 1777883986 | -17.78° C | 69% | 0 hPa | 0 mm | - | - | - |
| 1777883686 | -17.78° C | 70% | 0 hPa | 0 mm | - | - | - |
| 1777883386 | -17.78° C | 71% | 0 hPa | 0 mm | - | - | - |
| 1777883086 | -17.78° C | 72% | 0 hPa | 0 mm | - | - | - |
| 1777882786 | -17.78° C | 76% | 0 hPa | 0 mm | - | - | - |
| 1777882486 | -17.78° C | 72% | 0 hPa | 0 mm | - | - | - |
| 1777882186 | -17.78° C | 72% | 0 hPa | 0 mm | - | - | - |
| 1777881886 | -17.78° C | 72% | 0 hPa | 0 mm | - | - | - |
| 1777881586 | -17.78° C | 77% | 0 hPa | 0 mm | - | - | - |
| 1777881286 | -17.78° C | 77% | 0 hPa | 0 mm | - | - | - |
| 1777880986 | -10° C | 75% | 0 hPa | 0 mm | - | - | - |
| 1777880686 | -10.56° C | 75% | 0 hPa | 0 mm | - | - | - |
| 1777880386 | -11.11° C | 76% | 0 hPa | 0 mm | - | - | - |
| 1777880086 | -11.67° C | 77% | 0 hPa | 0 mm | - | - | - |
| 1777879786 | -11.67° C | 78% | 0 hPa | 0 mm | - | - | - |
| 1777879486 | -12.22° C | 77% | 0 hPa | 0 mm | - | - | - |
| 1777879186 | -11.67° C | 77% | 0 hPa | 0 mm | - | - | - |
| 1777878886 | -11.67° C | 76% | 0 hPa | 0 mm | - | - | - |
| 1777878586 | -12.78° C | 75% | 0 hPa | 0 mm | - | - | - |
| 1777878286 | -13.33° C | 75% | 0 hPa | 0 mm | - | - | - |
* Rain latest hour (hover to see other rain measurements)
** Current wind speed in m/s (hover to see current wind gust speed)